User: anonymous   Login
Location: Unspecified
(0.0000°N, 0.0000°E)
Time: 11:16:17
(UTC+00:00)
Language:

THEOS - Orbit

View from above orbital plane
View from above orbital plane
View from above satellite
View from above satellite

Ground track
Ground track

The orbit data is extracted from the following two-line orbital elements,

1 33396U 08049A   18019.83205855 -.00000036 +00000-0 +37363-5 0  9997
2 33396 098.7515 089.4262 0001264 089.8716 002.6904 14.20011754482228
Epoch (UTC): 19 January 2018 19:58:09
Eccentricity: 0.0001264
inclination: 98.7515°
perigee height: 824 km
apogee height: 826 km
right ascension of ascending node: 89.4262°
argument of perigee: 89.8716°
revolutions per day: 14.20011754
mean anomaly at epoch: 2.6904°
orbit number at epoch: 48222

The dashed part of the orbit path shows where the satellite is in the earth's shadow,  

DLR